Printer-friendly version
Follow the MPC on Twitter Follow the MPC on Facebook The MPC blog
Minor Planet Center

MPEC 2010-F27 : 2010 FP

The following Minor Planet Electronic Circular may be linked-to from your own Web pages, but must not otherwise be redistributed electronically.

A form allowing access to any MPEC is at the bottom of this page.


Read MPEC 2010-F26 Read MPEC 2010-F28


M.P.E.C. 2010-F27                                Issued 2010 Mar. 18, 17:24 UT

     The Minor Planet Electronic Circulars contain information on unusual
         minor planets and routine data on comets.  They are published
   on behalf of Commission 20 of the International Astronomical Union by the
          Minor Planet Center, Smithsonian Astrophysical Observatory,
                          Cambridge, MA 02138, U.S.A.

             Prepared using the Tamkin Foundation Computer Network

                              MPC@CFA.HARVARD.EDU
       URL http://www.minorplanetcenter.org/iau/mpc.html  ISSN 1523-6714

                                    2010 FP

Observations:
     K10F00P* C2010 03 17.35958 12 38 07.83 +24 55 11.4          19.3 V EF027703
     K10F00P  C2010 03 17.36610 12 38 08.19 +24 55 04.4          19.6 V EF027703
     K10F00P  C2010 03 17.37245 12 38 08.55 +24 54 56.7          19.2 V EF027703
     K10F00P  C2010 03 17.37884 12 38 08.88 +24 54 50.8          19.3 V EF027703
     K10F00P  C2010 03 17.41076 12 38 10.71 +24 54 15.5          19.4 V EF027703
     K10F00P  C2010 03 17.41582 12 38 10.96 +24 54 11.0          19.4 V EF027703
     K10F00P  C2010 03 17.42091 12 38 11.32 +24 54 04.5          19.3 V EF027703
     K10F00P  C2010 03 17.42600 12 38 11.58 +24 53 59.2          19.2 V EF027703
     K10F00P KC2010 03 17.85974 12 38 42.84 +24 45 58.7          19.0 V EF027A13
     K10F00P KC2010 03 17.88555 12 38 44.29 +24 45 31.5          19.2 V EF027A13
     K10F00P KC2010 03 17.92332 12 38 46.57 +24 44 53.7          19.2 V EF027A55
     K10F00P KC2010 03 17.93056 12 38 46.97 +24 44 46.1          19.3 V EF027A55
     K10F00P KC2010 03 17.93778 12 38 47.38 +24 44 38.6          19.2 V EF027A55
     K10F00P  C2010 03 17.94444 12 38 47.71 +24 44 29.3          19.3 R EF027473
     K10F00P  C2010 03 17.94652 12 38 47.81 +24 44 27.1          19.3 R EF027473
     K10F00P  C2010 03 18.19075 12 39 04.47 +24 39 58.5          19.4 R EF027H26
     K10F00P  C2010 03 18.19308 12 39 04.59 +24 39 56.0          19.3 R EF027H26
     K10F00P  C2010 03 18.19542 12 39 04.51 +24 39 52.9          19.8 R EF027H26
     K10F00P KC2010 03 18.28114 12 39 10.42 +24 38 19.2          18.9 C EF027G58
     K10F00P  C2010 03 18.28687 12 39 10.23 +24 38 14.3          19.5   EF027H05
     K10F00P KC2010 03 18.28915 12 39 10.86 +24 38 10.8          19.2 C EF027G58
     K10F00P KC2010 03 18.29733 12 39 11.35 +24 38 02.0          19.2 C EF027G58
     K10F00P  C2010 03 18.29908 12 39 10.89 +24 37 59.7          19.2   EF027H05
     K10F00P  C2010 03 18.31343 12 39 11.71 +24 37 44.6          19.2   EF027H05
     K10F00P KC2010 03 18.31470 12 39 11.49 +24 37 43.1          19.1 R EF027H36
     K10F00P KC2010 03 18.31933 12 39 11.75 +24 37 38.3          19.5 R EF027H36
     K10F00P  C2010 03 18.32615612 39 11.92 +24 37 29.8          19.4 V EF027H21
     K10F00P KC2010 03 18.32778 12 39 12.23 +24 37 29.0          19.3 R EF027H36
     K10F00P  C2010 03 18.33387212 39 12.37 +24 37 21.1          19.3 V EF027H21
     K10F00P  C2010 03 18.33850012 39 12.61 +24 37 15.9          19.3 V EF027H21
     K10F00P  C2010 03 18.38035 12 39 15.42 +24 36 32.3          19.3 R EF027H01
     K10F00P  C2010 03 18.38860 12 39 15.88 +24 36 22.9          19.0 R EF027H01
     K10F00P  C2010 03 18.39567 12 39 16.38 +24 36 16.4          19.7 R EF027926
     K10F00P  C2010 03 18.39739 12 39 16.37 +24 36 12.7          19.3 R EF027H01
     K10F00P  C2010 03 18.39814 12 39 16.52 +24 36 13.5          19.6 R EF027926
     K10F00P  C2010 03 18.40060 12 39 16.64 +24 36 10.6          19.5 R EF027926
     K10F00P  C2010 03 18.40799 12 39 16.95 +24 36 00.5          19.5 R EF027H01
     K10F00P  C2010 03 18.50745 12 39 22.67 +24 34 06.1          19.6 V EF027291
     K10F00P  C2010 03 18.51153 12 39 22.91 +24 34 01.2          19.6 V EF027291
     K10F00P  C2010 03 18.51555 12 39 23.16 +24 33 56.4          19.6 V EF027291

Observer details:
291 LPL/Spacewatch II.  Observer T. H. Bressi.  1.8-m f/2.7 reflector + CCD.
473 Remanzacco.  Observers L. Donato, V. Gonano, E. Guido, G. Sostero.  0.45-m
    f/4.4 Newtonian reflector + CCD.
703 Catalina Sky Survey.  Observer A. Boattini.  Measurers J. D. Ahern,
    E. C. Beshore, A. Boattini, G. J. Garradd, A. R. Gibbs, A. D. Grauer,
    R. E. Hill, R. A. Kowalski, S. M. Larson, R. H. McNaught.  0.68-m Schmidt
    + CCD.
926 Tenagra II Observatory.  Observers P. R. Holvorcem, M. Schwartz.  Measurer
    P. R. Holvorcem.  0.81-m f/7 Ritchey-Chretien + CCD.
A13 Observatoire Naef, Marly.  Observer P. Kocher.  0.5-m f/3.3 Hypergraph
    + CCD.
A55 Osservatorio Astronomico Vallemare di Borbona.  Observer V. S. Casulli.
    0.4-m f/4.5 Newtonian reflector + CCD.
G58 Chabot Space and Science Center, Oakland.  Observers G. McKeegan, C. Jung.
    0.9-m f/8 Cassegrain + CCD + f/6.3 focal reducer.
H01 Magdalena Ridge Observatory, Socorro.  Observers W. H. Ryan, E. V. Ryan.
    Measurer W. H. Ryan.  2.4-m f/8.9 reflector + CCD.
H05 Edmund Kline Observatory, Deer Trail.  Observer J. Gafford.  0.46-m f/4.5
    reflector + CCD.
H21 Astronomical Research Observatory, Westfield.  Observer R. Holmes.
    Measurer S. Foglia.
H26 Doc Greiner Research Observatory, Janesvillle.  Observer M. Mills.  0.40-m
    f/8 Schmidt-Cassegrain + CCD.
H36 Sandlot Observatory, Scranton.  Observer G. Hug.  0.56-m reflector + CCD.

Orbital elements:
2010 FP                                                  Earth MOID = 0.2887 AU
Epoch 2010 Jan. 4.0 TT = JDT 2455200.5                  MPC
M 345.49900              (2000.0)            P               Q
n   0.20366662     Peri.  114.76306     -0.99199493     -0.07773246
a   2.8610326      Node    60.91554     +0.02536663     -0.89468484
e   0.5593416      Incl.    6.53885     +0.12370362     -0.43988260
P   4.84           H   20.6           G   0.15           U   8
Residuals in seconds of arc
100317 703  0.1-  0.0     100317 473  0.1-  0.1-    100318 H21  0.3+  0.2-
100317 703  0.2-  0.0     100318 H26  1.1+  0.6+    100318 H21  0.1+  0.1-
100317 703  0.1-  0.9-    100318 H26  0.9+  0.6+    100318 H01  0.2-  0.1+
100317 703  0.4-  0.2+    100318 H26  2.0-  0.1+    100318 H01  0.1-  0.1+
100317 703  0.1+  0.3-    100318 G58  0.1-  0.4-    100318 926  0.2+  0.1+
100317 703  0.4-  0.8+    100318 H05  0.0   0.5+    100318 H01  0.1+  0.1-
100317 703  0.6+  0.1-    100318 G58  0.3-  0.2-    100318 926  0.2+  0.1+
100317 703  0.2+  0.2+    100318 G58  0.1+  0.1-    100318 926  0.1+  0.0
100317 A13  0.5+  0.2+    100318 H05  0.2-  0.7-    100318 H01  0.0   0.1-
100317 A13  1.1-  0.1+    100318 H05  0.2+  0.1+    100318 291  0.1-  0.1+
100317 A55  0.5+  0.2-    100318 H36  0.3-  0.4-    100318 291  0.1-  0.0
100317 A55  0.3+  0.0     100318 H36  0.3-  0.0     100318 291  0.1+  0.0
100317 A55  0.3+  0.2+    100318 H21  0.0   0.2-
100317 473  0.2+  0.1-    100318 H36  0.0   0.2+

Ephemeris:
2010 FP                  a,e,i = 2.86, 0.56, 7                   q = 1.2607
Date    TT    R. A. (2000) Decl.     Delta      r     Elong.  Phase     V
2010 03 15    12 35.39   +25 35.1    0.291    1.261   153.0    21.0    19.5
2010 03 25    12 45.90   +22 16.1    0.289    1.265   154.9    19.5    19.4
2010 04 04    12 54.07   +17 49.0    0.298    1.279   156.7    18.0    19.4
2010 04 14    13 00.90   +12 40.8    0.319    1.303   157.1    17.5    19.6
2010 04 24    13 07.65   +07 22.6    0.354    1.335   155.3    18.3    19.9
2010 05 04    13 15.25   +02 21.6    0.403    1.376   151.6    20.4    20.3
2010 05 14    13 24.06   -02 07.2    0.466    1.423   146.7    22.9    20.8
2010 05 24    13 34.35   -06 00.4    0.543    1.476   141.3    25.4    21.3
2010 06 03    13 46.04   -09 19.9    0.634    1.533   135.7    27.5    21.8

Sonia Keys                   (C) Copyright 2010 MPC           M.P.E.C. 2010-F27

Read MPEC 2010-F26 Read MPEC 2010-F28


MPEC number:

Enter an MPEC number in one of the following forms:

  • 1997-B01 (the full form)
  • J97B01 (the packed version of the full form)
  • B01 (the abbreviated form)

Valid HTML 4.01!